Hourly Data Report for October 06, 2012

All times are specified in Local Standard Time (LST). Add 1 hour to adjust for Daylight Saving Time where and when it is observed.

KITCHENER/WATERLOO
ONTARIO

43°27'39.000" N
80°22'43.000" W
321.60 m
6144239
71368
YKF

Download Data

Hourly Data (October 2012)
Hourly Data Report for October 6, 2012
Temp Definition
°C
Dew Point Temp Definition
°C
Rel Hum Definition
%
Wind Dir Definition
10's deg

Wind Spd Definition
km/h
Visibility Definition
km
Stn Press Definition
kPa
Hmdx Definition


Wind Chill Definition


Weather Definition


TIME
00:00 Legend Double Dagger 8.2 7.1 93 25 15 9.7 97.38     LegendNANA
01:00 Legend Double Dagger 7.8 6.9 94 26 15 9.7 97.38     LegendNANA
02:00 Legend Double Dagger 7.2 6.5 95 25 13 9.7 97.27     LegendNANA
03:00 Legend Double Dagger 7.1 6.1 93 24 15 16.1 97.27     LegendNANA
04:00 Legend Double Dagger 7.0 6.0 93 24 15 16.1 97.28     LegendNANA
05:00 Legend Double Dagger 6.2 5.5 95 24 18 14.5 97.28     LegendNANA
06:00 Legend Double Dagger 5.8 5.1 95 23 17 9.7 97.29     LegendNANA
07:00 Legend Double Dagger 5.8 5.1 95 24 18 9.7 97.32     LegendNANA
08:00 Legend Double Dagger 7.1 5.3 89 24 18 16.1 97.36     LegendNANA
09:00 Legend Double Dagger 8.8 4.3 73 25 32 16.1 97.40     LegendNANA
10:00 Legend Double Dagger 7.7 1.3 64 28 32 16.1 97.44     LegendNANA
11:00 Legend Double Dagger 7.4 1.3 65 27 28 16.1 97.49     LegendNANA
12:00 Legend Double Dagger 7.7 0.5 60 25 37 16.1 97.48     LegendNANA
13:00 Legend Double Dagger 8.5 1.6 62 24 32 16.1 97.49     LegendNANA
14:00 Legend Double Dagger 7.9 1.3 63 25 26 16.1 97.53     LegendNANA
15:00 Legend Double Dagger 8.1 1.4 63 26 28 16.1 97.55     LegendNANA
16:00 Legend Double Dagger 8.1 1.9 65 26 26 16.1 97.57     LegendNANA
17:00 Legend Double Dagger 8.6 1.6 61 26 22 16.1 97.61     LegendNANA
18:00 Legend Double Dagger 7.1 2.9 74 29 21 16.1 97.68     LegendNANA
19:00 Legend Double Dagger 6.1 3.2 82 30 18 16.1 97.79     LegendNANA
20:00 Legend Double Dagger 5.6 2.8 82 28 9 16.1 97.84     LegendNANA
21:00 Legend Double Dagger 5.3 3.0 85 27 9 16.1 97.90     LegendNANA
22:00 Legend Double Dagger 5.6 2.9 83 25 9 16.1 97.87     LegendNANA
23:00 Legend Double Dagger 5.6 2.6 81 25 9 16.1 97.89     LegendNANA

Notes on Data Quality.

Legend

  • E = Estimated
  • M = Missing
  • NA = Not Available
  • ‡ = Partner data that is not subject to review by the National Climate Archives
Date modified: